Flag for Cyprus Weather past 2 weeks in Larnaca, Cyprus

Now
66 °F

Passing clouds.


Feels Like: 66 °F
Forecast: 54 / 77 °F
Wind: 9 mph from South

Location: Larnaca Airport

Current Time: Apr 19, 2015 at 11:27:59 AM

Latest Report: Apr 19, 2015 at 11:00 AM


Visibility: N/A

Pressure: 30.09 "Hg

Humidity: 68%

Dew point: 55 °F

Location of LarnacaLocation

Historic Weather in Larnaca — Graph

°F

Larnaca temperature yesterday

Maximum temperature yesterday: 72 °F (at 1:30 PM)
Minimum temperature yesterday: 54 °F (at 4:00 AM)
Average temperature yesterday: 63 °F

Past Weeks' High & Low Weather Summary

 TemperatureHumidityPressure
High77 °F (Apr 16, 3:30 PM)100% (Apr 19, 3:30 AM)30.21 "Hg (Apr 19, 3:30 AM)
Low48 °F (Apr 5, 6:30 AM)23% (Apr 13, 12:00 PM)29.50 "Hg (Apr 9, 3:30 AM)
Average61 °F62%29.98 "Hg
* Reported Apr 4 10:00 AM — Apr 19 10:00 AM, Larnaca, Weather by CustomWeather, © 2015

Note: Actual official high and low records may vary slightly from our data, if they occured in-between our weather recording intervals... More about our weather records

Advertising

Larnaca weather history for previous 24 hours

 ConditionsComfort  
Time TempWeatherWind HumidityBarometerVisibility
10:00 AM
Sun, Apr 19
66 °FPassing clouds.8 mph73%30.09 "HgN/A
9:30 AM66 °FPassing clouds.7 mph68%30.09 "HgN/A
9:00 AM64 °FPassing clouds.3 mph68%30.09 "HgN/A
8:30 AM64 °FSunny.1 mph68%30.07 "Hg10 mi
8:00 AM61 °FPassing clouds.3 mph77%30.07 "HgN/A
7:30 AM59 °FPassing clouds.3 mph82%30.07 "HgN/A
7:00 AM54 °FClear.3 mph94%30.07 "Hg10 mi
6:30 AM52 °FPassing clouds.5 mph100%30.07 "Hg4 mi
6:00 AM52 °FPassing clouds.6 mph100%30.07 "Hg4 mi
5:30 AM54 °FPassing clouds.3 mph94%30.07 "Hg4 mi
5:00 AM54 °FPassing clouds.5 mph94%30.07 "Hg4 mi
4:30 AM54 °FPassing clouds.6 mph94%30.07 "Hg4 mi
4:00 AM54 °FPassing clouds.5 mph100%30.07 "Hg4 mi
3:30 AM54 °FPassing clouds.6 mph100%30.09 "Hg4 mi
3:00 AM54 °FPassing clouds.6 mph94%30.09 "Hg4 mi
2:30 AM55 °FPassing clouds.5 mph88%30.09 "Hg4 mi
2:00 AM55 °FPassing clouds.6 mph94%30.09 "Hg4 mi
1:30 AM55 °FClear.5 mph94%30.09 "Hg4 mi
1:00 AM57 °FClear.3 mph88%30.12 "Hg10 mi
12:30 AM59 °FClear.6 mph82%30.12 "Hg10 mi
12:00 AM57 °FClear.6 mph88%30.12 "Hg10 mi
11:30 PM
Sat, Apr 18
59 °FPassing clouds.3 mph82%30.12 "HgN/A
11:00 PM59 °FClear.2 mph82%30.12 "Hg10 mi
10:30 PM61 °FClear.No wind77%30.12 "Hg10 mi
10:00 PM61 °FClear.2 mph77%30.12 "Hg10 mi
9:30 PM61 °FClear.2 mph72%30.12 "Hg10 mi
9:00 PM61 °FClear.1 mph72%30.12 "Hg10 mi
8:30 PM63 °FPassing clouds.3 mph73%30.09 "HgN/A
8:00 PM63 °FPassing clouds.6 mph77%30.09 "HgN/A
7:30 PM64 °FPassing clouds.12 mph73%30.09 "HgN/A
7:00 PM64 °FPassing clouds.15 mph73%30.09 "HgN/A
6:30 PM66 °FPassing clouds.17 mph68%30.09 "HgN/A
6:00 PM68 °FPassing clouds.20 mph64%30.09 "HgN/A
5:30 PM68 °FPassing clouds.21 mph64%30.09 "HgN/A
5:00 PM68 °FPassing clouds.24 mph60%30.09 "HgN/A
4:30 PM68 °FPassing clouds.24 mph64%30.09 "HgN/A
4:00 PM70 °FPassing clouds.23 mph57%30.09 "HgN/A
3:30 PM72 °FPassing clouds.23 mph57%30.09 "HgN/A
3:00 PM72 °FPassing clouds.20 mph57%30.12 "HgN/A
2:30 PM72 °FPassing clouds.18 mph50%30.12 "HgN/A
2:00 PM72 °FPassing clouds.16 mph53%30.15 "HgN/A
1:30 PM72 °FPassing clouds.13 mph57%30.15 "HgN/A
1:00 PM68 °FPassing clouds.9 mph56%30.15 "HgN/A
12:30 PM68 °FPassing clouds.13 mph60%30.18 "HgN/A
12:00 PM68 °FPassing clouds.12 mph64%30.18 "HgN/A
11:30 AM68 °FPassing clouds.9 mph60%30.18 "HgN/A
11:00 AM68 °FPassing clouds.7 mph60%30.18 "HgN/A
Weather by CustomWeather, © 2015

See weather overviewHow to use our weather pages